Date String (YYYY-MM-DD hh:mm:ss) UTC,Instrument flags,Ambient pressure (hPa),Sample flow (lpm),Bypass flow (lpm),Sample temperature (°C),Ambient temperature (°C),ASC tube jacket temperature (°C),LED temperature (°C),Box temperature (°C),Sample RH (%),Span deviation,Mass concentration (μg/m³),Mass concentration (μg/m³),Mass concentration (μg/m³)
DateTimeUTC,F1_M11,P_M11,Q1_M11,Q2_M11,T1_M11,T2_M11,T3_M11,T4_M11,T5_M11,U1_M11,ZSPAN_M11,X0_M11,X2_M11,X1_M11
2022-11-20 08:00:00,,0828.3,5.01,0.00,22.0,21.6,00.0,30.8,23.9,08.7,0000.0,0006.47,0003.51,0003.25
2022-11-20 08:01:00,,0828.3,4.99,0.00,22.1,22.2,00.0,30.8,24.1,08.7,0000.0,0006.46,0003.50,0003.24
2022-11-20 08:02:00,,0828.3,5.00,0.00,22.1,21.9,00.0,30.9,24.0,08.6,0000.0,0006.28,0003.50,0003.25
2022-11-20 08:03:00,,0828.3,5.00,0.00,22.1,21.5,00.0,30.9,24.0,08.6,0000.0,0005.57,0003.51,0003.25
2022-11-20 08:04:00,,0828.3,4.99,0.00,22.1,21.2,00.0,30.9,23.9,08.6,0000.0,0005.58,0003.51,0003.25
2022-11-20 08:05:00,,0828.4,5.01,0.00,22.1,21.0,00.0,30.9,23.9,08.7,0000.0,0005.55,0003.51,0003.25
2022-11-20 08:06:00,,0828.2,5.00,0.00,22.0,20.8,00.0,30.9,23.9,08.7,0000.0,0005.45,0003.53,0003.25
2022-11-20 08:07:00,,0828.3,4.99,0.00,22.0,20.7,00.0,30.9,23.8,08.7,0000.0,0005.39,0003.54,0003.25
2022-11-20 08:08:00,,0828.3,5.01,0.00,22.0,20.6,00.0,30.9,23.8,08.7,0000.0,0005.61,0003.53,0003.25
2022-11-20 08:09:00,,0828.3,4.99,0.00,22.0,20.5,00.0,30.9,23.8,08.7,0000.0,0005.43,0003.50,0003.24
2022-11-20 08:10:00,,0828.3,4.99,0.00,21.9,20.4,00.0,30.9,23.7,08.7,0000.0,0005.44,0003.50,0003.23
2022-11-20 08:11:00,,0828.3,5.00,0.00,21.9,20.5,00.0,30.9,23.7,08.7,0000.0,0005.33,0003.47,0003.24
2022-11-20 08:12:00,,0828.3,5.01,0.00,22.0,21.4,00.0,30.9,23.9,08.7,0000.0,0005.28,0003.45,0003.23
2022-11-20 08:13:00,,0828.3,4.99,0.00,22.1,22.2,00.0,30.8,24.1,08.7,0000.0,0005.38,0003.47,0003.23
2022-11-20 08:14:00,,0828.3,5.00,0.00,22.2,22.1,00.0,30.9,24.2,08.6,0000.0,0005.38,0003.48,0003.23
2022-11-20 08:15:00,,0828.3,5.02,0.00,22.2,21.7,00.0,30.9,24.1,08.6,0000.0,0005.44,0003.48,0003.23
2022-11-20 08:16:00,,0828.3,5.00,0.00,22.2,21.4,00.0,31.0,24.0,08.7,0000.0,0005.39,0003.47,0003.24
2022-11-20 08:17:00,,0828.3,5.00,0.00,22.1,21.1,00.0,31.0,24.0,08.7,0000.0,0005.44,0003.48,0003.25
2022-11-20 08:18:00,,0828.2,5.01,0.00,22.1,20.9,00.0,31.0,23.9,08.7,0000.0,0005.87,0003.49,0003.25
2022-11-20 08:19:00,,0828.2,5.00,0.00,22.1,20.7,00.0,31.0,23.9,08.7,0000.0,0006.24,0003.49,0003.26
2022-11-20 08:20:00,,0828.2,4.99,0.00,22.1,20.7,00.0,31.0,23.9,08.7,0000.0,0006.60,0003.52,0003.26
2022-11-20 08:21:00,,0828.2,5.00,0.00,22.0,20.6,00.0,31.0,23.9,08.7,0000.0,0006.88,0003.52,0003.25
2022-11-20 08:22:00,,0828.2,5.01,0.00,22.0,20.6,00.0,31.0,23.9,08.7,0000.0,0007.07,0003.51,0003.25
2022-11-20 08:23:00,,0828.2,5.00,0.00,22.0,20.5,00.0,31.0,23.8,08.7,0000.0,0007.05,0003.52,0003.26
2022-11-20 08:24:00,,0828.3,4.99,0.00,22.0,20.5,00.0,31.0,23.8,08.7,0000.0,0007.02,0003.50,0003.26
2022-11-20 08:25:00,,0828.2,5.01,0.00,22.0,21.2,00.0,30.9,23.9,08.7,0000.0,0007.16,0003.50,0003.26
2022-11-20 08:26:00,,0828.2,5.01,0.00,22.1,22.1,00.0,30.9,24.1,08.7,0000.0,0007.81,0003.50,0003.27
2022-11-20 08:27:00,,0828.3,4.98,0.00,22.2,22.2,00.0,30.9,24.2,08.6,0000.0,0007.80,0003.50,0003.26
2022-11-20 08:28:00,,0828.2,5.02,0.00,22.2,21.9,00.0,31.0,24.2,08.6,0000.0,0007.75,0003.48,0003.26
2022-11-20 08:29:00,,0828.2,5.00,0.00,22.2,21.6,00.0,31.0,24.2,08.6,0000.0,0007.50,0003.48,0003.26
2022-11-20 08:30:00,,0828.2,5.00,0.00,22.2,21.4,00.0,31.1,24.1,08.6,0000.0,0007.17,0003.51,0003.26
2022-11-20 08:31:00,,0828.2,5.01,0.00,22.2,21.2,00.0,31.1,24.1,08.6,0000.0,0006.99,0003.51,0003.26
2022-11-20 08:32:00,,0828.2,5.01,0.00,22.2,21.1,00.0,31.1,24.0,08.6,0000.0,0006.80,0003.53,0003.27
2022-11-20 08:33:00,,0828.2,4.98,0.00,22.2,21.0,00.0,31.1,24.0,08.6,0000.0,0007.17,0003.56,0003.28
2022-11-20 08:34:00,,0828.3,5.01,0.00,22.2,20.9,00.0,31.1,24.0,08.6,0000.0,0007.31,0003.57,0003.28
2022-11-20 08:35:00,,0828.1,5.01,0.00,22.2,20.8,00.0,31.1,24.0,08.6,0000.0,0007.32,0003.58,0003.29
2022-11-20 08:36:00,,0828.1,4.99,0.00,22.1,20.8,00.0,31.1,23.9,08.7,0000.0,0007.29,0003.57,0003.29
2022-11-20 08:37:00,,0828.1,5.01,0.00,22.1,20.7,00.0,31.1,23.9,08.7,0000.0,0006.70,0003.55,0003.27
2022-11-20 08:38:00,,0828.1,5.01,0.00,22.1,20.7,00.0,31.0,23.9,08.7,0000.0,0007.15,0003.56,0003.27
2022-11-20 08:39:00,,0828.1,4.98,0.00,22.1,21.0,00.0,31.0,23.9,08.6,0000.0,0007.16,0003.56,0003.27
2022-11-20 08:40:00,,0828.3,5.02,0.00,22.2,21.9,00.0,31.0,24.1,08.6,0000.0,0007.33,0003.56,0003.26
2022-11-20 08:41:00,,0828.3,4.99,0.00,22.3,22.5,00.0,31.0,24.3,08.6,0000.0,0007.19,0003.52,0003.26
2022-11-20 08:42:00,,0828.2,5.00,0.00,22.3,22.2,00.0,31.1,24.3,08.5,0000.0,0007.21,0003.51,0003.28
2022-11-20 08:43:00,,0828.2,5.01,0.00,22.3,21.9,00.0,31.1,24.3,08.5,0000.0,0007.48,0003.50,0003.29
2022-11-20 08:44:00,,0828.2,4.99,0.00,22.3,21.6,00.0,31.1,24.2,08.6,0000.0,0007.06,0003.51,0003.30
2022-11-20 08:45:00,,0828.4,5.00,0.00,22.3,21.4,00.0,31.1,24.2,08.6,0000.0,0007.06,0003.51,0003.31
2022-11-20 08:46:00,,0828.2,5.01,0.00,22.3,21.1,00.0,31.2,24.1,08.6,0000.0,0007.09,0003.52,0003.34
2022-11-20 08:47:00,,0828.2,4.99,0.00,22.3,21.0,00.0,31.2,24.1,08.6,0000.0,0007.24,0003.53,0003.36
2022-11-20 08:48:00,,0828.2,5.01,0.00,22.2,20.8,00.0,31.2,24.0,08.6,0000.0,0007.84,0003.57,0003.39
2022-11-20 08:49:00,,0828.2,4.99,0.00,22.2,20.8,00.0,31.2,24.0,08.6,0000.0,0007.79,0003.62,0003.42
2022-11-20 08:50:00,,0828.3,4.99,0.00,22.2,20.7,00.0,31.1,24.0,08.6,0000.0,0007.93,0003.63,0003.43
2022-11-20 08:51:00,,0828.2,5.02,0.00,22.2,20.7,00.0,31.1,24.0,08.6,0000.0,0007.88,0003.64,0003.44
2022-11-20 08:52:00,,0828.2,4.99,0.00,22.1,20.7,00.0,31.1,23.9,08.6,0000.0,0007.85,0003.64,0003.45
2022-11-20 08:53:00,,0828.2,5.00,0.00,22.1,20.7,00.0,31.1,23.9,08.6,0000.0,0007.87,0003.64,0003.45
2022-11-20 08:54:00,,0828.3,5.02,0.00,22.2,21.5,00.0,31.0,24.1,08.6,0000.0,0007.61,0003.67,0003.46
2022-11-20 08:55:00,,0828.3,5.00,0.00,22.3,22.3,00.0,31.0,24.3,08.6,0000.0,0007.58,0003.66,0003.46
2022-11-20 08:56:00,,0828.3,5.00,0.00,22.3,22.2,00.0,31.1,24.3,08.6,0000.0,0007.55,0003.67,0003.47
2022-11-20 08:57:00,,0828.2,4.99,0.00,22.4,21.9,00.0,31.1,24.3,08.5,0000.0,0007.50,0003.67,0003.46
2022-11-20 08:58:00,,0828.1,5.01,0.00,22.3,21.6,00.0,31.2,24.2,08.5,0000.0,0007.40,0003.67,0003.46
2022-11-20 08:59:00,,0828.2,4.98,0.00,22.3,21.4,00.0,31.2,24.2,08.5,0000.0,0006.03,0003.67,0003.46
